Regional Weather Roundup
Issued by NWS

Home | Current Version | Previous Version | Graphics & Text | Print | Product List | Glossary On
Versions: 1 2 3 4 5 6 7 8 9 10 11 12 13 14 15 16 17 18 19 20 21 22 23 24 25 26 27 28 29 30 31 32 33 34 35 36 37 38 39 40 41 42 43 44 45 46 47 48 49 50
000
ASUS44 KMEG 172200
RWRTN
TENNESSEE HOURLY STATE WEATHER ROUNDUP
NATIONAL WEATHER SERVICE MEMPHIS TN
400 PM CST WED JAN 17 2018

TNZ002-004-019-021-049-052-054-088>092-172300-
WEST TENNESSEE

CITY           SKY/WX    TMP DP  RH WIND       PRES   REMARKS
MEMPHIS INTL   FAIR      21  11  65 W7        30.67F WCI  12
NWS MEMPHIS      N/A     23 N/A N/A MISG        N/A
JACKSON        FAIR      17   8  67 NW7       30.68S WCI   8
DYERSBURG      FAIR      17   8  67 W6        30.70  WCI   9
$$

TNZ008-025-027-028-033-062-065-066-172300-
NORTH MIDDLE TENNESSEE

CITY           SKY/WX    TMP DP  RH WIND       PRES   REMARKS
NASHVILLE      FAIR      21   9  59 N8        30.62S WCI  11
CLARKSVILLE    FAIR      17   5  59 N3        30.63F
SMYRNA         FAIR      19  11  70 N9        30.63S WCI   8
CROSSVILLE     CLOUDY    12   5  73 NW9       30.45R WCI   0
$$

TNZ061-075-076-078-094-096-097-172300-
SOUTH MIDDLE TENNESSEE

CITY           SKY/WX    TMP DP  RH WIND       PRES   REMARKS
WINCHESTER     PTCLDY    16   7  67 NW8       30.55R WCI   5
$$

TNZ017-018-042-046-047-172300-
NORTHEAST TENNESSEE

CITY           SKY/WX    TMP DP  RH WIND       PRES   REMARKS
TRI CITIES     FAIR      20   5  52 N8        30.38R WCI  10
$$

TNZ012-013-036-069-073-074-172300-
CENTRAL EAST TENNESSEE

CITY           SKY/WX    TMP DP  RH WIND       PRES   REMARKS
KNOXVILLE      FAIR      19   7  59 N12       30.48R WCI   7
OAK RIDGE      FAIR      21   7  54 NW9       30.50S WCI  11
$$

TNZ083-085-099-172300-
SOUTHEAST TENNESSEE

CITY           SKY/WX    TMP DP  RH WIND       PRES   REMARKS
CHATTANOOGA    FAIR      24   6  46 NW17      30.51R WCI  11
$$

SKY/WX REPORTED AS FAIR MEANS FEW OR NO CLOUDS BELOW
12 THOUSAND FEET.





USA.gov is the U.S. government's official web portal to all federal, state and local government web resources and services.